World > North America > United States > Missouri > Vichy  

Vichy, MO Hourly Weather Updates

Feedback E-mail the Weather

Quick Clicks

Vichy, MO Weather Maps

°F °C°F °C
Vichy Weather Map
UTC Time: 5/18/2024, 15:25
Your Time:

Vichy, MO Regional Weather

Expires:202405181600;;429405
ASUS43 KEAX 181515
RWREAX

WEATHER ROUNDUP FOR EASTERN KANSAS AND NORTHWEST MISSOURI
NATIONAL WEATHER SERVICE KANSAS CITY/PLEASANT HILL MO
1000 AM CDT SAT MAY 18 2024


MOZ041-047>049-056>058-063>065-088>090-097-181600-
...EASTERN AND SOUTHERN MISSOURI...
  
CITY           SKY/WX    TMP DP  RH WIND       PRES   REMARKS
ST. LOUIS INTL MOSUNNY   78  64  61 SW3       29.89S                  
SPIRIT OF STL  MOSUNNY   75  65  70 CALM      29.87S                  
COLUMBIA       SUNNY     77  63  61 S5        29.88R                  
JEFFERSON CITY SUNNY     76  65  68 CALM      29.88R                  
MEXICO         SUNNY     73  64  73 CALM      29.88S                  
HANNIBAL       SUNNY     75  64  69 CALM      29.87F                  
ROLLA          SUNNY     74  65  73 SW6       29.91R                  
LEBANON        SUNNY     73  63  68 CALM      29.92S                  
OSAGE BEACH    SUNNY     75  64  68 W3        29.90R                  
SPRINGFIELD    SUNNY     73  64  73 CALM      29.90R                  
BRANSON        SUNNY     72  66  83 CALM      29.93R                  
JOPLIN         SUNNY     76  64  66 CALM      29.89R                  
WEST PLAINS    PTSUNNY   73  63  70 S3        29.92R                  

$$


SKY/WX - Weather  TMP - Temperature  DP - Dew Point  RH - Humidity
WIND - Wind Direction/Speed PRES - Barometric Pressure VSB - Visibility
WCI - Wind Chill Index E13G22 Wind - East Wind 13 mph/Gusts of 22 mph

Trending Headlines

Trending Entertainment Headlines

Vichy Radar Loop

Use the map search tool if you want to place a location marker on the radar map...

Vichy Quick Facts

National Two Day Weather Forecast


E-mail the Vichy Weather Forecast

Voice your opinion or tell us about page issues...